Location: Civry
(47.2902°N, 4.6156°E)
Time: 07:53:04
(UTC+00:00)

Cosmos 1697 Rocket - Pass Details

Date: 09 April 2020
Orbit: 831 x 845 km, 71.0° (Epoch: 02 June)

Event Time Altitude Azimuth Distance (km) Brightness Sun altitude
Rises 21:05:29 0° 333° (NNW) 3,412 7.1 -24.7°
Reaches altitude 10° 21:07:57 10° 335° (NNW) 2,474 6.1 -24.9°
Maximum altitude 21:13:38 78° 62° (ENE) 867 2.6 -25.6°
Enters shadow 21:14:11 71° 116° (ESE) 895 2.5 -25.6°
